Theta_e
329 330 332 333 334 337 344 345 347 351 348 345 339 333 331 328 328 326 326 328 330 324 325 330 331 331 331 331 332 332 331 329 328
326 329 331 332 335 336 341 345 346 349 346 342 338 334 330 328 328 330 332 332 329 327 330 331 331 332 331 331 333 332 330 328 328
321 328 331 332 334 336 341 345 348 350 346 342 337 334 331 330 330 330 332 330 329 330 328 330 330 331 330 331 330 329 329 328 327
320 322 329 332 334 336 341 344 348 348 345 341 336 336 333 332 333 333 331 330 330 330 329 331 332 332 331 330 329 330 329 328 328
321 322 326 330 332 334 339 342 347 346 344 340 338 337 335 334 335 334 331 330 330 330 330 331 331 330 330 330 330 329 327 327 327
319 322 328 330 331 332 337 341 345 344 343 340 339 337 335 333 332 330 330 330 330 329 329 329 329 328 327 328 328 327 327 327 327
318 322 326 329 329 332 337 341 343 343 342 341 338 338 335 334 329 328 329 331 330 329 329 328 328 328 329 330 329 328 328 328 327
319 319 325 325 328 327 335 340 341 342 342 340 338 336 336 334 332 331 329 330 332 330 330 329 329 329 329 329 329 331 329 326 326
314 316 324 328 330 329 328 339 339 340 340 339 337 334 335 335 332 332 331 332 332 330 330 329 329 329 329 326 329 329 327 325 321
314 316 317 318 331 335 336 339 340 337 337 337 336 335 335 333 333 332 332 332 331 330 328 328 328 329 327 327 326 325 325 328 322
314 315 317 316 318 327 339 341 339 338 333 336 335 332 332 334 334 332 332 332 331 331 330 330 328 326 328 326 326 324 322 325 320
315 316 317 319 321 324 336 340 339 335 333 334 333 331 331 333 333 332 331 330 330 330 329 327 326 327 327 324 325 320 319 320 318
321 322 322 324 323 331 336 335 336 333 331 330 329 331 332 333 333 332 331 331 331 330 329 329 327 324 325 324 324 318 316 316 316
321 322 324 325 330 334 333 335 335 331 330 329 330 331 332 331 333 332 332 332 331 331 327 323 324 324 325 325 323 321 314 313 314
321 323 324 330 332 331 332 332 331 327 324 329 330 331 333 334 334 335 334 331 330 327 324 324 322 322 319 321 319 314 312 312 309
318 322 332 330 325 326 330 328 326 322 320 325 325 323 321 322 325 326 331 331 328 325 323 321 320 319 319 316 315 309 308 308 309
328 326 324 324 324 324 323 324 324 321 323 325 324 324 324 322 324 321 323 328 326 324 322 320 319 317 314 312 308 305 305 306 305
326 327 326 325 324 323 321 323 323 323 323 323 322 322 321 321 322 326 321 316 314 315 306 309 312 310 310 310 305 304 300 299 302
325 326 323 321 321 322 321 323 321 322 323 322 322 321 320 320 324 321 315 308 304 299 299 297 297 300 303 301 301 298 297 295 295
321 323 322 320 321 323 325 322 322 322 324 323 319 319 318 323 319 319 313 308 307 304 304 300 297 296 298 299 298 296 295 295 295
Wind_Speed
22 24 23 24 24 21 21 22 20 18 17 16 14 11 10 8 8 5 4 4 3 3 3 3 4 4 4 4 3 3 2 2 2
22 24 22 23 23 20 19 20 22 21 19 17 16 11 7 7 8 7 6 5 5 4 3 3 6 6 5 4 3 3 2 2 3
17 22 21 21 21 19 19 21 20 19 18 17 13 10 7 7 8 7 7 6 7 6 4 4 5 5 5 4 4 4 3 3 4
14 19 22 21 18 20 21 19 19 18 16 15 14 13 11 10 7 7 7 6 6 6 5 5 5 5 5 5 5 5 4 5 6
9 15 15 19 20 20 19 19 17 18 16 15 15 14 12 10 8 8 7 7 7 7 7 5 6 6 6 6 6 6 5 6 5
9 12 12 14 16 18 19 19 18 18 17 17 15 13 13 9 9 9 9 8 7 7 7 7 6 6 6 7 7 6 6 6 7
10 15 17 16 14 16 17 18 19 18 17 17 16 14 14 11 11 11 9 8 8 8 8 7 7 7 7 7 6 6 6 6 7
11 10 11 14 15 13 15 17 17 15 15 15 16 15 14 13 13 10 8 9 9 8 7 7 7 6 6 6 6 5 6 5 6
9 7 10 9 9 12 15 17 16 16 17 15 15 14 14 10 8 10 10 10 10 8 7 7 6 7 7 6 4 8 7 7 5
11 10 8 9 10 13 13 15 16 16 16 15 16 14 13 12 12 11 12 12 10 9 7 6 7 7 7 7 7 9 9 7 5
10 10 8 7 8 8 14 17 12 12 11 15 15 11 9 11 14 13 13 11 11 7 5 7 7 7 7 6 6 8 8 7 4
9 8 6 4 3 4 7 12 15 15 15 16 14 12 12 13 13 14 12 10 9 6 5 6 6 5 6 5 6 8 7 6 3
7 7 4 4 4 3 6 7 12 16 17 14 13 13 15 13 13 12 10 9 8 7 6 7 1 2 2 5 7 8 9 4 1
6 7 8 2 2 4 6 11 14 14 12 10 5 4 6 7 6 9 10 9 7 7 3 6 4 3 4 4 6 7 9 3 2
2 6 3 7 7 6 6 8 11 11 10 6 8 8 8 8 8 7 8 6 3 5 6 6 4 3 5 3 3 3 3 3 3
5 5 5 6 10 11 9 12 14 12 4 7 8 9 8 11 9 8 12 3 5 5 5 4 4 5 3 3 2 3 7 4 6
3 4 5 5 10 13 12 9 10 13 9 9 9 6 6 8 3 7 6 3 4 7 5 4 4 3 3 4 3 1 2 3 3
3 6 7 4 7 11 11 9 9 6 7 8 7 5 7 10 5 4 2 2 3 3 2 1 4 3 4 4 3 1 2 3 4
6 8 6 7 8 10 8 8 8 7 7 9 7 6 5 4 4 5 6 6 5 13 9 7 8 7 7 2 5 2 7 9 10
3 5 7 9 11 9 9 9 10 7 7 4 5 7 5 4 4 4 4 4 6 7 4 10 11 11 9 8 4 5 9 7 5
Wind_Direction
185 186 185 182 183 182 181 183 182 184 182 173 173 175 175 172 165 176 178 169 164 164 173 185 179 183 192 192 219 267 255 231 247
188 188 187 186 189 185 184 185 187 186 182 178 173 168 160 167 166 165 164 162 162 171 173 178 174 187 190 202 211 227 213 218 232
184 186 185 189 190 184 194 193 189 186 184 179 164 150 168 175 178 167 167 166 178 174 196 195 185 198 210 212 221 236 216 229 233
170 170 187 190 186 192 196 191 188 186 181 174 164 161 185 176 180 183 170 178 185 190 194 213 211 214 219 231 237 249 252 248 234
176 168 178 188 191 189 191 191 186 187 176 178 176 173 185 174 178 183 178 188 191 192 204 209 208 217 220 233 239 240 241 256 253
167 161 169 178 185 189 193 190 190 184 179 180 176 172 185 176 189 183 184 189 192 191 200 217 224 221 229 240 248 255 258 246 251
165 173 177 178 182 194 193 190 191 184 181 179 174 177 183 183 188 187 183 178 190 195 201 207 220 232 235 239 249 253 258 258 260
156 171 183 192 196 194 194 189 191 184 183 180 174 175 179 191 196 183 179 184 194 204 205 206 212 230 240 242 237 242 240 237 248
148 156 178 179 203 217 209 192 189 187 186 174 169 178 187 179 194 186 190 196 199 200 209 207 214 227 233 242 245 251 246 210 241
160 164 145 163 189 199 204 204 194 188 182 166 175 189 176 179 194 189 202 200 198 202 198 205 221 227 218 233 245 255 263 229 216
166 156 170 186 169 194 208 202 181 175 159 169 175 181 191 181 192 195 204 203 199 189 191 210 213 218 224 233 252 252 249 235 237
165 168 168 195 203 213 203 195 179 163 163 174 178 178 188 192 191 200 201 198 189 192 196 210 203 210 219 255 271 261 231 192 227
122 145 142 194 218 205 162 165 164 165 173 170 167 184 194 195 199 203 194 194 184 197 195 206 136 55 356 333 306 270 235 218 152
154 169 193 208 157 205 176 160 163 165 166 166 165 176 189 214 203 202 196 192 190 198 135 111 109 79 284 202 230 253 233 222 209
285 248 242 83 78 71 92 103 113 110 94 107 102 94 50 15 338 261 212 185 156 104 137 130 151 236 266 231 236 228 160 142 192
324 332 116 110 120 105 101 111 120 116 141 117 97 90 99 79 30 324 336 326 137 127 149 164 216 238 225 188 130 76 38 16 9
67 106 122 109 122 114 114 111 97 111 118 102 90 84 74 40 213 237 192 237 177 161 177 193 197 217 179 145 141 77 349 344 336
139 95 78 67 94 101 89 92 98 114 139 127 117 142 171 195 221 205 135 35 339 104 79 140 151 158 134 135 171 246 252 276 296
153 140 129 106 111 116 131 138 146 161 166 156 168 212 221 219 250 174 167 163 105 46 66 65 78 115 111 47 82 10 294 270 253
108 134 153 159 162 155 158 167 158 175 191 231 195 160 191 227 230 156 179 147 137 133 44 49 53 77 99 92 120 357 333 350 138